Weather in Ferney-Voltaire

France     46°15′27″N   6°06′51″E
temp.,
°C
wind,
m/s
gust,
m/s
humid.,
%
clouds,
%
prec.,
mm/h
press.,
hPa
HPBL,
m
13 june, sun
sun1323:00+15nnw229065 0.0 102327
02:00+14n229016 0.0 102339
05:00+13n2296100 0.0 102344
08:00+16ne378699 0.0 1023457
11:00+21ene46615 0.0 10221025
14:00+24ene465113 0.0 10211385
17:00+24ene46535 0.0 10201064
20:00+20ne27718 0.0 1020356
14 june, mon
mon1423:00+16ne310764 0.0 1021376
02:00+13ne24865 0.0 1021125
05:00+11nne22955 0.0 102230
08:00+14ene23825 0.0 1022285
11:00+21e12622 0.0 1020605
14:00+25ese22490 0.0 10181218
17:00+26e02470 0.0 10171363
20:00+22ne11780 0.0 101760
15 june, tue
tue1523:00+16n11910 0.0 101913
02:00+15nne22770 0.0 101940
05:00+13nne22840 0.0 101928
08:00+16ne23770 0.0 1020210
11:00+23e12580 0.0 1018784
14:00+26se22470 0.0 10171578
17:00+26e124849 0.0 10161457
20:00+21nw118155 0.3 101712
16 june, wed
wed1623:00+17n11891 0.0 101813
02:00+15n11925 0.0 101811
05:00+14nne11945 0.0 101711
08:00+17e11836 0.0 1017116
11:00+24ese12575 0.0 1016596
14:00+28sse23434 0.0 10141622
17:00+28sse22385 0.0 10132091
20:00+24ssw11700 0.0 101314
17 june, thu
thu1723:00+18wnw11810 0.0 101411
02:00+16w11884 0.4 101611
05:00+15w119575 1.0 101513
08:00+18sw019456 1.1 101693
11:00+24ese116376 0.1 1015567
14:00+28ese224623 0.1 10141331
17:00+28s234697 0.1 10131946
20:00+20e1192100 3.8 101525